Wind_Speed
1 4 1 3 3 2 2 5 8 6 1 5 10 19 19 20 19 21 21 20 23 23 17 18 22 25 26 26 25 24 22 20 20 19 18 18 16 14 14 13 13 12 11 10
4 1 3 2 1 2 3 6 6 5 1 6 12 22 14 5 14 22 22 23 21 17 19 20 24 29 31 29 29 28 25 24 23 21 20 19 18 18 16 16 15 13 13 13
3 4 2 2 1 4 3 4 4 5 10 4 15 6 1 2 4 8 15 20 19 18 20 22 26 30 30 31 31 31 28 26 25 23 23 23 23 21 19 17 16 14 15 15
1 2 1 2 2 2 5 1 3 7 8 4 7 5 2 5 4 2 4 12 17 19 21 22 24 29 31 31 31 32 31 29 28 28 28 27 24 23 20 18 16 17 16 16
3 2 2 3 1 1 3 1 3 4 5 5 2 4 2 2 6 7 7 0 9 15 20 24 27 27 29 30 31 31 32 33 32 32 31 29 27 25 22 22 20 18 18 18
2 1 1 2 1 1 1 4 2 2 2 3 3 4 1 2 3 2 3 2 1 4 12 17 21 25 29 30 33 33 34 35 35 35 34 33 30 27 26 25 23 21 20 20
2 2 2 1 3 2 2 6 2 2 2 3 2 5 7 2 3 4 3 2 1 3 4 3 9 17 24 30 32 34 36 38 37 38 38 36 33 31 28 26 25 24 23 22
2 3 0 3 3 4 3 4 3 4 4 6 3 5 1 1 6 11 10 7 6 7 8 5 3 8 14 20 27 32 36 37 38 39 40 38 36 34 31 29 28 26 25 23
3 2 2 5 2 4 2 1 2 2 1 4 3 5 6 2 3 3 9 10 10 9 5 5 9 14 17 20 23 27 32 35 37 39 40 40 39 37 34 31 29 28 27 26
2 2 1 2 2 5 2 2 1 0 4 5 1 6 7 3 4 4 9 13 11 10 2 13 20 21 21 18 18 23 25 30 34 36 38 40 41 39 36 35 32 30 28 27
5 2 3 2 5 3 4 2 1 1 2 3 5 4 2 6 4 4 11 13 12 11 11 17 23 24 20 19 20 19 21 26 31 35 37 38 39 40 39 38 35 32 30 29
5 1 3 1 3 3 2 2 4 2 3 1 2 8 3 6 7 7 11 13 14 17 20 28 29 20 16 18 17 17 18 22 26 29 34 36 35 36 39 39 37 34 32 30
7 3 2 3 3 1 5 5 4 2 1 7 4 6 3 3 7 11 18 19 18 20 28 28 26 20 18 17 17 17 17 19 21 25 28 31 33 34 35 36 37 36 33 31
8 3 6 6 2 3 5 7 11 10 5 9 15 26 25 21 21 27 27 27 27 25 27 24 21 18 18 17 17 17 16 17 17 19 22 26 29 29 30 32 35 36 34 33
4 5 5 7 4 4 11 10 14 15 19 12 24 20 25 25 20 26 24 23 23 23 24 21 20 19 16 16 15 15 14 14 13 14 17 20 23 25 27 28 31 34 35 34
2 2 1 4 5 9 14 15 18 18 19 22 24 27 29 33 28 20 22 23 24 25 22 21 18 16 14 13 11 11 11 11 10 10 11 13 17 21 24 26 28 31 34 35
7 6 4 4 2 2 10 17 17 9 10 12 13 15 19 20 20 22 23 21 25 25 20 17 14 11 11 9 7 7 7 8 9 8 9 12 15 17 20 23 27 30 33 34
7 6 3 2 2 6 5 2 3 12 13 16 18 20 24 22 24 23 17 16 19 18 13 11 10 10 8 5 2 3 5 7 8 8 8 10 13 16 19 22 25 27 30 34
4 6 3 4 7 7 10 5 8 9 14 14 16 20 20 9 10 13 6 11 15 15 9 7 8 8 8 5 4 4 5 6 7 7 8 10 12 14 17 20 22 24 27 31
4 2 7 4 5 7 2 4 6 6 9 7 13 12 8 3 5 8 8 11 11 14 9 8 9 10 10 9 8 7 8 8 8 9 9 10 13 16 19 20 21 23 27 29
5 4 11 12 8 6 10 9 11 3 4 9 11 10 9 7 9 13 17 15 13 10 13 13 14 15 15 14 13 11 11 12 12 14 15 17 18 20 22 24 26 26 27 29
11 11 6 7 7 12 17 10 8 8 6 10 11 12 13 18 18 20 23 23 20 18 16 19 20 21 20 20 19 17 17 16 17 18 19 22 24 26 27 27 28 28 28 30
7 11 6 13 9 1 26 14 35 13 11 13 14 14 17 18 21 23 26 29 27 26 24 24 26 27 26 25 24 23 22 20 20 21 23 25 27 31 31 28 29 30 30 30
8 9 6 5 15 18 18 27 28 22 27 28 31 31 26 31 32 33 33 32 33 31 30 29 30 32 32 31 28 27 25 23 22 24 26 28 31 29 27 27 26 28 31 31
10 13 10 17 18 11 14 24 33 34 34 35 36 38 36 32 34 31 30 28 31 34 33 31 33 33 34 34 31 30 28 25 24 24 26 31 31 29 28 28 28 29 28 29
14 12 10 17 17 19 19 20 23 32 36 37 40 38 41 38 39 40 38 39 35 33 34 34 35 35 34 33 31 30 27 26 26 26 27 28 30 31 31 29 30 29 28 27
Wind_Direction
28 243 35 51 33 35 318 297 300 306 6 290 266 276 279 265 232 235 230 225 224 224 221 216 221 226 227 229 230 232 235 236 238 242 246 249 254 258 257 260 262 264 271 273
208 32 92 102 125 282 276 303 331 285 244 288 302 293 299 291 245 237 233 230 229 226 218 217 225 227 229 232 234 235 237 238 241 244 247 248 250 253 259 260 261 263 265 269
310 73 121 230 242 283 277 298 332 305 313 253 305 258 127 149 250 234 233 236 234 226 222 221 225 230 233 234 236 237 240 241 244 246 247 246 248 251 254 260 261 261 260 262
43 80 219 252 281 291 297 70 296 307 327 321 359 305 66 0 18 239 217 226 230 228 229 226 227 232 236 242 240 242 241 241 243 244 246 250 253 255 256 256 258 258 259 260
85 183 204 252 351 244 349 335 309 300 293 291 138 265 94 22 64 53 58 204 232 230 231 233 234 238 244 245 245 246 244 243 242 243 245 248 252 255 254 254 256 258 260 259
104 109 325 20 93 322 52 265 254 233 262 236 56 334 197 100 69 56 66 5 255 225 233 238 239 242 244 246 246 246 245 245 243 244 246 247 251 254 256 256 257 258 258 258
163 157 95 9 251 171 259 284 297 230 235 358 73 283 282 217 257 270 308 266 172 123 121 194 244 251 252 249 251 249 247 247 245 244 244 247 249 251 255 257 256 257 259 258
247 174 35 21 20 349 11 334 349 314 322 316 137 239 96 183 276 265 239 230 184 141 120 82 347 303 282 266 256 252 250 249 247 247 247 247 248 249 252 254 255 256 257 260
182 136 100 50 20 327 63 323 14 303 186 272 297 268 260 289 219 220 200 207 191 172 157 342 319 312 298 280 271 262 255 252 249 249 248 247 247 247 249 252 255 256 256 257
141 188 27 111 170 70 335 90 256 163 321 304 273 283 278 244 234 192 209 215 208 199 254 326 326 312 301 290 285 268 262 257 254 251 249 249 248 248 249 249 252 255 257 256
165 241 118 225 202 171 151 179 134 312 300 299 310 279 237 260 247 262 218 216 223 234 292 316 320 313 296 293 292 281 271 261 255 251 249 247 246 247 248 248 250 252 255 255
176 161 199 60 67 349 310 222 219 240 188 180 271 271 193 259 275 270 254 252 255 267 302 321 317 313 299 299 296 291 284 274 266 256 251 248 247 246 246 247 247 250 253 256
176 198 194 187 157 169 233 194 204 123 132 226 257 260 148 234 273 265 262 273 274 279 299 308 303 298 298 300 301 297 294 290 275 261 253 248 246 245 247 246 246 247 250 254
163 185 250 270 34 125 189 199 208 215 220 264 238 277 280 283 285 287 282 282 287 290 293 295 296 291 290 298 302 308 302 297 284 268 254 247 244 246 249 248 246 245 248 251
199 230 224 260 253 249 270 243 206 208 233 249 270 276 278 289 298 302 297 290 286 283 290 291 293 285 282 295 306 310 309 306 297 280 261 251 246 247 247 247 247 247 246 250
172 201 146 261 237 241 270 256 250 233 243 254 264 273 275 283 290 295 299 296 289 284 286 289 286 278 278 292 301 311 315 315 309 296 279 262 254 253 253 251 250 248 248 249
175 164 166 260 130 215 269 258 230 222 216 224 237 253 288 295 295 299 302 294 288 289 284 280 277 257 265 277 294 319 338 340 333 310 286 270 263 261 262 259 254 252 251 251
160 171 179 240 163 237 246 203 240 226 257 223 259 268 277 284 291 297 299 289 306 312 294 275 258 251 244 247 272 340 360 357 352 337 312 288 276 270 266 264 263 261 258 255
218 170 182 235 219 319 288 214 176 192 276 273 240 262 273 294 299 295 330 336 335 326 298 264 251 230 221 232 257 298 317 328 333 344 340 326 308 295 282 275 271 265 260 259
170 274 224 163 239 236 178 142 156 144 274 204 201 238 259 184 298 312 306 325 327 324 298 260 234 222 235 244 254 269 291 307 314 313 313 315 316 313 303 294 284 276 268 263
160 190 217 226 254 267 255 156 145 211 294 172 199 222 193 210 267 296 296 297 299 292 284 262 243 242 245 252 257 259 268 279 288 297 306 309 309 306 302 298 293 284 275 270
175 170 191 205 229 263 179 132 206 216 202 213 222 242 236 254 275 292 289 295 287 281 271 266 257 256 253 256 260 264 269 275 280 287 297 306 309 306 299 292 287 283 278 273
221 209 196 198 207 183 186 206 213 240 250 260 265 271 274 268 277 290 287 289 289 280 275 266 263 260 257 258 262 265 271 272 278 288 297 302 304 303 297 290 285 281 280 275
232 214 235 224 223 231 227 231 240 242 256 270 281 284 279 279 285 285 286 283 281 284 281 277 269 263 262 262 263 267 268 270 275 286 297 303 305 300 296 292 287 282 280 279
230 166 218 247 262 287 256 249 251 258 266 275 280 283 284 286 287 284 286 285 292 293 289 284 277 271 266 262 261 263 262 265 276 286 297 305 303 300 297 292 289 286 281 278
201 214 223 251 247 241 259 253 260 269 271 275 277 280 284 287 284 288 285 289 289 289 292 287 283 275 264 255 254 258 261 271 281 291 301 301 300 299 298 297 292 287 284 279
Height
1578 1574 1574 1577 1579 1580 1580 1580 1577 1571 1578 1577 1564 1557 1553 1553 1556 1557 1559 1560 1560 1565 1573 1575 1573 1575 1575 1576 1577 1577 1578 1580 1580 1580 1581 1581 1581 1581 1582 1582 1583 1582 1582 1582
1577 1575 1581 1582 1583 1582 1580 1578 1570 1572 1578 1578 1560 1550 1543 1546 1547 1551 1554 1554 1559 1565 1567 1568 1568 1565 1566 1569 1571 1573 1575 1576 1576 1576 1577 1577 1577 1577 1578 1578 1578 1578 1579 1579
1575 1580 1583 1582 1581 1580 1576 1578 1577 1581 1574 1572 1565 1536 1539 1545 1547 1547 1548 1551 1555 1559 1561 1561 1558 1561 1564 1565 1567 1568 1570 1572 1572 1573 1573 1573 1572 1573 1574 1574 1575 1575 1575 1575
1578 1583 1582 1582 1581 1582 1578 1582 1583 1581 1575 1564 1568 1547 1533 1539 1538 1543 1544 1546 1550 1553 1553 1555 1555 1555 1558 1559 1561 1562 1564 1565 1567 1568 1569 1569 1570 1569 1570 1570 1570 1571 1571 1571
1580 1582 1582 1581 1581 1583 1579 1585 1584 1583 1577 1576 1567 1564 1528 1538 1536 1539 1542 1544 1545 1545 1546 1547 1549 1552 1553 1553 1555 1557 1558 1559 1561 1562 1564 1565 1566 1567 1567 1567 1566 1567 1567 1567
1581 1584 1584 1583 1586 1586 1587 1584 1583 1583 1577 1565 1570 1568 1532 1535 1539 1539 1542 1542 1541 1541 1542 1544 1546 1547 1546 1548 1548 1550 1551 1552 1555 1556 1558 1559 1560 1562 1562 1563 1563 1563 1563 1563
1581 1582 1586 1587 1584 1586 1584 1578 1565 1563 1562 1558 1576 1570 1536 1538 1540 1541 1542 1541 1540 1539 1540 1541 1542 1542 1542 1541 1542 1543 1544 1545 1547 1548 1549 1551 1553 1556 1557 1558 1558 1559 1559 1558
1575 1577 1585 1589 1588 1586 1585 1582 1574 1583 1570 1562 1580 1561 1534 1539 1540 1539 1539 1539 1538 1538 1539 1539 1539 1539 1538 1536 1535 1535 1535 1536 1539 1540 1541 1543 1546 1548 1550 1552 1553 1553 1554 1554
1574 1579 1590 1591 1591 1592 1585 1580 1590 1584 1593 1583 1557 1545 1535 1537 1536 1536 1537 1536 1536 1536 1536 1536 1536 1535 1534 1531 1529 1528 1528 1528 1528 1530 1533 1535 1537 1539 1541 1544 1546 1547 1548 1548
1571 1576 1589 1591 1592 1593 1589 1592 1584 1582 1588 1576 1553 1555 1541 1534 1531 1535 1536 1535 1535 1534 1533 1533 1531 1529 1526 1524 1523 1521 1520 1520 1522 1522 1524 1527 1530 1532 1534 1536 1537 1539 1541 1542
1571 1572 1589 1590 1586 1579 1589 1586 1591 1590 1587 1580 1572 1544 1528 1531 1532 1533 1533 1533 1533 1532 1531 1529 1526 1523 1521 1518 1516 1515 1514 1513 1512 1514 1515 1515 1519 1523 1526 1527 1530 1531 1534 1535
1570 1570 1574 1577 1588 1589 1586 1582 1579 1580 1584 1589 1590 1558 1533 1533 1534 1535 1533 1533 1531 1529 1526 1523 1521 1518 1516 1514 1511 1509 1507 1506 1506 1505 1506 1508 1511 1513 1516 1518 1521 1524 1526 1528
1571 1572 1573 1578 1588 1589 1584 1583 1582 1584 1585 1581 1580 1543 1532 1534 1534 1533 1532 1530 1529 1526 1524 1521 1517 1514 1512 1510 1507 1504 1502 1500 1498 1498 1498 1500 1503 1505 1507 1510 1513 1515 1518 1520
1568 1569 1563 1564 1564 1567 1578 1579 1580 1574 1576 1567 1558 1536 1527 1527 1528 1528 1528 1526 1524 1522 1518 1514 1511 1509 1508 1506 1504 1501 1498 1495 1492 1491 1491 1492 1495 1498 1501 1504 1505 1507 1510 1512
1567 1567 1566 1566 1568 1569 1563 1564 1569 1573 1559 1562 1536 1539 1523 1519 1520 1520 1520 1520 1517 1513 1510 1508 1505 1504 1503 1502 1500 1497 1495 1491 1489 1488 1488 1488 1490 1492 1494 1496 1498 1501 1501 1502
1567 1564 1570 1564 1567 1568 1564 1557 1553 1556 1557 1551 1544 1538 1519 1520 1517 1517 1514 1512 1508 1504 1502 1501 1500 1499 1500 1499 1497 1494 1492 1490 1488 1487 1487 1488 1488 1489 1490 1490 1491 1492 1494 1495
1562 1564 1567 1561 1570 1570 1562 1539 1542 1541 1541 1538 1538 1519 1514 1511 1511 1511 1508 1506 1501 1497 1495 1494 1494 1495 1495 1495 1494 1492 1490 1489 1487 1486 1485 1484 1483 1483 1485 1485 1485 1484 1486 1487
1558 1561 1565 1561 1568 1567 1528 1533 1533 1533 1525 1528 1523 1516 1513 1513 1510 1506 1503 1500 1497 1493 1490 1490 1490 1491 1492 1492 1492 1491 1489 1487 1485 1484 1482 1480 1479 1479 1478 1478 1478 1479 1479 1479
1554 1555 1564 1561 1557 1538 1530 1522 1531 1531 1514 1509 1513 1509 1509 1511 1508 1502 1501 1498 1495 1491 1489 1489 1489 1490 1490 1490 1490 1489 1488 1486 1485 1482 1482 1481 1480 1477 1474 1472 1470 1469 1468 1469
1555 1555 1552 1567 1560 1545 1514 1519 1522 1524 1520 1502 1503 1503 1506 1508 1504 1498 1498 1496 1492 1490 1488 1487 1487 1487 1487 1485 1485 1485 1485 1485 1484 1482 1479 1477 1475 1475 1473 1470 1468 1465 1463 1460
1552 1558 1554 1548 1546 1525 1514 1516 1521 1527 1503 1497 1498 1499 1501 1502 1498 1496 1495 1493 1490 1487 1486 1484 1484 1483 1482 1481 1480 1479 1479 1479 1479 1478 1477 1475 1471 1468 1466 1464 1462 1461 1457 1455
1528 1543 1548 1543 1545 1528 1503 1515 1513 1494 1492 1492 1493 1493 1495 1494 1493 1491 1490 1489 1487 1484 1482 1481 1480 1479 1477 1476 1475 1474 1473 1473 1471 1470 1469 1467 1465 1462 1459 1456 1454 1451 1450 1448
1518 1502 1509 1511 1502 1492 1492 1488 1488 1489 1488 1488 1489 1489 1489 1488 1486 1485 1483 1482 1480 1478 1477 1475 1474 1472 1471 1470 1469 1467 1467 1465 1464 1465 1462 1461 1458 1454 1450 1447 1445 1443 1442 1440
1502 1500 1498 1499 1483 1487 1486 1487 1486 1485 1483 1482 1482 1482 1482 1480 1479 1475 1474 1472 1471 1470 1468 1467 1465 1464 1463 1462 1462 1462 1461 1460 1457 1456 1456 1452 1449 1446 1442 1439 1436 1434 1433 1432
1483 1491 1489 1479 1479 1482 1482 1481 1480 1479 1478 1477 1476 1474 1473 1472 1468 1466 1465 1465 1465 1464 1461 1458 1455 1454 1453 1453 1452 1452 1452 1451 1449 1447 1446 1445 1441 1439 1436 1431 1428 1426 1423 1421
1475 1473 1478 1457 1469 1469 1470 1472 1474 1472 1471 1470 1468 1466 1465 1464 1460 1459 1457 1457 1455 1454 1452 1448 1446 1443 1443 1442 1442 1443 1444 1444 1443 1439 1435 1433 1433 1431 1427 1424 1421 1416 1414 1413